Key West, FL

10:06 PM EDT on June 25, 2017 (GMT -0400)
Key West International

Weather History for KEYW - June, 2013

Change the Weather History Date:

Monday, June 3, 2013

  Actual Average Record
Temperature  
Mean Temperature 78 °F 83 °F  
Max Temperature 82 °F 87 °F 92 °F (1880)
Min Temperature 73 °F 78 °F 70 °F (1984)
Degree Days  
Heating Degree Days 0 0  
Month to date heating degree days 0 0  
Since 1 June heating degree days 0 0  
Since 1 July heating degree days 28 73  
Cooling Degree Days 13 17  
Month to date cooling degree days 46 51  
Year to date cooling degree days 1675 1481  
Since 1 June cooling degree days 46 51  
Growing Degree Days 28 (Base 50)    
Moisture  
Dew Point 74 °F    
Average Humidity 86    
Maximum Humidity 93    
Minimum Humidity 79    
Precipitation  
Precipitation 0.50 in 0.14 in 2.58 in (1968)
Month to date precipitation 1.15 0.42  
Year to date precipitation 15.94 11.05  
Snow  
Snow 0.00 in - - ()
Month to date snowfall 0.0  
Since 1 June snowfall 0.0  
Since 1 July snowfall 0.0  
Snow Depth 0.00 in    
Sea Level Pressure  
Sea Level Pressure 29.97 in    
Wind  
Wind Speed 7 mph (ESE)    
Max Wind Speed 26 mph    
Max Gust Speed 32 mph    
Visibility 8 miles    
Events Rain    
T = Trace of Precipitation, MM = Missing Value Source: NWS Daily Summary

Daily Weather History Graph

Daily Weather History Graph

Search for Another Location

Airport or City:

Trip Planner

Search our weather history database for the weather conditions in past years. The results will help you decide how hot, cold, wet, or windy it might be!

Date:

Astronomy

Jun. 03, 2013 Rise Set
Actual Time 6:37 AM EDT 8:12 PM EDT
Civil Twilight 6:12 AM EDT 8:38 PM EDT
Nautical Twilight 5:42 AM EDT 9:08 PM EDT
Astronomical Twilight 5:10 AM EDT 9:40 PM EDT
Moon 3:08 AM EDT (6/3) 4:04 PM EDT (6/3)
Length of Visible Light 14h 25m
Length of Day
13h 35m
Waning Crescent, 22% of the Moon is Illuminated
Jun 3
Waning Crescent
Jun 8
New
Jun 16
First Quarter
Jun 23
Full
Jun 30
Last Quarter

Hourly Weather History & Observations

Time (EDT) Temp. Heat Index Dew Point Humidity Pressure Visibility Wind Dir Wind Speed Gust Speed Precip Events Conditions
12:53 AM 80.1 °F 84.5 °F 73.9 °F 81% 29.98 in 10.0 mi South 5.8 mph - N/A   Scattered Clouds
1:53 AM 79.0 °F - 75.0 °F 88% 29.95 in 10.0 mi SSE 6.9 mph - N/A   Mostly Cloudy
2:53 AM 80.1 °F 85.1 °F 75.0 °F 85% 29.94 in 10.0 mi SSE 4.6 mph - N/A   Clear
3:53 AM 80.1 °F 85.4 °F 75.9 °F 87% 29.92 in 10.0 mi East 3.5 mph - N/A   Overcast
4:53 AM 79.0 °F - 75.9 °F 90% 29.92 in 10.0 mi East 4.6 mph - N/A   Mostly Cloudy
5:53 AM 79.0 °F - 75.0 °F 88% 29.92 in 10.0 mi ENE 4.6 mph - N/A   Clear
6:53 AM 81.0 °F 87.3 °F 75.9 °F 85% 29.95 in 10.0 mi ESE 6.9 mph - N/A   Overcast
7:53 AM 81.0 °F 87.9 °F 77.0 °F 88% 29.96 in 10.0 mi ESE 8.1 mph - N/A   Overcast
8:53 AM 80.1 °F 85.1 °F 75.0 °F 85% 29.98 in 10.0 mi East 9.2 mph - N/A   Mostly Cloudy
9:10 AM 80.6 °F 85.4 °F 73.4 °F 79% 29.98 in 7.0 mi ESE 15.0 mph 21.9 mph 0.00 in Rain Light Rain
9:18 AM 78.8 °F - 73.4 °F 83% 29.98 in 5.0 mi East 11.5 mph - 0.00 in Rain Light Rain
9:53 AM 79.0 °F - 73.9 °F 84% 29.98 in 9.0 mi SE 6.9 mph - 0.01 in   Overcast
10:53 AM 79.0 °F - 73.9 °F 84% 29.99 in 7.0 mi ESE 6.9 mph - 0.01 in Rain Light Rain
11:53 AM 78.1 °F - 73.9 °F 87% 30.00 in 8.0 mi ESE 9.2 mph - 0.07 in Rain Light Rain
12:53 PM 79.0 °F - 75.0 °F 88% 29.99 in 9.0 mi East 5.8 mph - 0.03 in Rain Light Rain
1:01 PM 78.8 °F - 75.2 °F 89% 29.99 in 8.0 mi East 3.5 mph - 0.00 in Rain Light Rain
1:18 PM 78.8 °F - 75.2 °F 89% 29.98 in 9.0 mi East 4.6 mph - 0.00 in Rain Light Rain
1:53 PM 80.1 °F 85.8 °F 77.0 °F 90% 29.96 in 9.0 mi ESE 5.8 mph - 0.01 in Rain Light Rain
2:53 PM 81.0 °F 87.9 °F 77.0 °F 88% 29.95 in 10.0 mi ESE 6.9 mph - 0.00 in   Clear
3:53 PM 81.0 °F 87.9 °F 77.0 °F 88% 29.95 in 9.0 mi ESE 5.8 mph - N/A   Mostly Cloudy
4:19 PM 80.6 °F 87.1 °F 77.0 °F 89% 29.94 in 8.0 mi East 5.8 mph - 0.00 in Rain Light Rain
4:38 PM 80.6 °F 87.1 °F 77.0 °F 89% 29.94 in 9.0 mi East 6.9 mph - 0.00 in Rain Light Rain
4:48 PM 82.4 °F 90.9 °F 77.0 °F 84% 29.94 in 9.0 mi East 6.9 mph - 0.00 in Rain Light Rain
4:53 PM 81.0 °F 87.3 °F 75.9 °F 85% 29.94 in 10.0 mi East 6.9 mph - 0.00 in Rain Light Rain
5:53 PM 81.0 °F 87.3 °F 75.9 °F 85% 29.94 in 10.0 mi East 4.6 mph - 0.00 in Rain Light Rain
6:53 PM 80.1 °F 85.4 °F 75.9 °F 87% 29.95 in 9.0 mi ENE 4.6 mph - 0.00 in Rain Light Rain
7:53 PM 78.1 °F - 73.9 °F 87% 29.95 in 10.0 mi East 5.8 mph - 0.00 in Rain Light Rain
8:53 PM 80.1 °F 85.4 °F 75.9 °F 87% 29.97 in 10.0 mi ESE 9.2 mph - 0.00 in   Partly Cloudy
9:53 PM 75.9 °F - 72.0 °F 87% 30.02 in 9.0 mi SSW 16.1 mph - 0.00 in Rain Light Rain
10:02 PM 73.4 °F - 69.8 °F 88% 30.02 in 4.0 mi SSE 23.0 mph 32.2 mph 0.01 in Rain Heavy Rain
10:08 PM 73.4 °F - 69.8 °F 88% 30.03 in 2.5 mi South 21.9 mph 32.2 mph 0.03 in Rain Heavy Rain
10:14 PM 73.4 °F - 69.8 °F 88% 30.03 in 1.8 mi South 12.7 mph 32.2 mph 0.08 in Rain Heavy Rain
10:25 PM 73.4 °F - 69.8 °F 88% 30.03 in 3.0 mi South 9.2 mph 18.4 mph 0.28 in Rain Heavy Rain
10:39 PM 73.4 °F - 71.6 °F 94% 30.03 in 5.0 mi SSE 8.1 mph - 0.33 in Rain Heavy Rain
10:53 PM 73.9 °F - 71.1 °F 91% 30.03 in 9.0 mi SSE 8.1 mph - 0.35 in Rain Light Rain
11:53 PM 73.9 °F - 71.1 °F 91% 30.02 in 10.0 mi ENE 3.5 mph - 0.02 in Rain Light Rain